Regional Weather Roundup
Issued by NWS

Current Version | Previous Version | Text Only | Print | Product List | Glossary Off
Versions: 1 2 3 4 5 6 7 8 9 10 11 12 13 14 15 16 17 18 19 20 21 22 23 24 25 26 27 28 29 30 31 32 33 34 35 36 37 38 39 40 41 42 43 44 45 46 47 48 49 50

000
ASUS44 KJAN 251910
RWRMS

MISSISSIPPI HOURLY WEATHER ROUNDUP
NATIONAL WEATHER SERVICE JACKSON MS
200 PM CDT SAT APR 25 2015

NOTE: "FAIR: INDICATES FEW OR NO CLOUDS BELOW 12,000 FEET WITH NO
SIGNIFICANT WEATHER AND/OR OBSTRUCTIONS TO VISIBILITY.

MSZ001>002-007>008-010>013-018>021-025>028-034>036-252000-
NORTHWEST MISSISSIPPI

CITY           SKY/WX    TMP DP  RH WIND       PRES   REMARKS
CLARKSDALE     FAIR      79  70  73 SW15G22   29.63F
CLEVELAND      CLOUDY    78  75  92 SW15G22   29.64F
GREENWOOD      NOT AVBL
GREENVILLE     CLOUDY    79  73  82 SW14      29.64F HAZE
OLIVE BRANCH   PTSUNNY   75  72  88 SW12G21   29.63S
OXFORD         FAIR      77  66  69 SW9G17    29.66F
TUNICA         CLOUDY    77  68  73 SW14      29.64S
$$

MSZ003>006-009-014>017-022>024-029>033-037>039-252000-
NORTHEAST MISSISSIPPI

CITY           SKY/WX    TMP DP  RH WIND       PRES   REMARKS
COLUMBUS AFB   CLOUDY    77  77  99 S5        29.69S
CORINTH        FAIR      79  66  65 SW9G16    29.62S
GOLDN TRIANGLE PTSUNNY   75  70  83 SW7       29.69F
STARKVILLE     CLOUDY    73  70  88 SW6       29.71R
TUPELO         CLOUDY    76  67  73 SW12G17   29.66F
$$

MSZ040-058-252000-
CENTRAL MISSISSIPPI

CITY           SKY/WX    TMP DP  RH WIND       PRES   REMARKS
JACKSON INTL   CLOUDY    76  68  76 W12       29.71F
JACKSON HAWKNS CLOUDY    75  69  81 W7        29.71F
MERIDIAN KEY   CLOUDY    78  69  73 SW14      29.72F
MERIDIAN NAS   CLOUDY    78  71  79 S5        29.71F THUNDER
RAYMOND        FAIR      75  72  88 W12       29.71S HAZE
VICKSBURG      CLOUDY    77  69  76 VRB6      29.70S
$$

MSZ059>079-252000-
SOUTH MISSISSIPPI

CITY           SKY/WX    TMP DP  RH WIND       PRES   REMARKS
BROOKHAVEN       N/A    122 N/A N/A S8        29.72F
HATTIESBURG    LGT RAIN  75  69  81 W12G25    29.81R
MCCOMB         CLOUDY    70  67  90 S12       29.77F
NATCHEZ        CLOUDY    73  66  78 SW10G16   29.74R
PINE BELT      CLOUDY    73  68  83 W7        29.82S
$$

MSZ080>082-252000-
COASTAL MISSISSIPPI

CITY           SKY/WX    TMP DP  RH WIND       PRES   REMARKS
BAY ST LOUIS   TSTM      70  66  88 MISG      29.88R VSB 1
BILOXI         LGT RAIN  77  77 100 W9G21     29.79R
PASCAGOULA     LGT RAIN  79  75  87 S7        29.76F
GULFPORT       HVY RAIN  75  70  84 NW14      29.79S
$$



USA.gov is the U.S. government's official web portal to all federal, state and local government web resources and services.